Flag for Poland Weather past 2 weeks in Lódz, Poland

Now
31 °F

Fog.


Feels Like: 31 °F
Forecast: 24 / 34 °F
Wind: 2 mph from North

Location: Lodz

Current Time: Jan 26, 2015 at 7:28:48 AM

Latest Report: Jan 26, 2015 at 6:00 AM


Visibility: 4 mi

Pressure: 30.27 "Hg

Humidity: 93%

Dew point: 30 °F

Location of LódzLocation

Historic Weather in Lódz — Graph

°F

Lódz temperature yesterday

Maximum temperature yesterday: 30 °F (at 11:00 PM)
Minimum temperature yesterday: 27 °F (at 9:00 AM)
Average temperature yesterday: 29 °F

Past Weeks' High & Low Weather Summary

 TemperatureHumidityPressure
High51 °F (Jan 16, 2:00 PM)100% (Jan 20, 10:00 AM)30.27 "Hg (Jan 20, 10:00 AM)
Low27 °F (Jan 25, 9:00 AM)47% (Jan 13, 10:00 PM)29.60 "Hg (Jan 11, 7:00 AM)
Average36 °F86%29.99 "Hg
* Reported Jan 11 6:00 AM — Jan 26 6:00 AM, Lódz, Weather by CustomWeather, © 2014

Note: Actual official high and low records may vary slightly from our data, if they occured in-between our weather recording intervals... More about our weather records

Advertising

Lódz weather history for previous 24 hours

 ConditionsComfort  
Time TempWeatherWind HumidityBarometerVisibility
6:00 AM
Jan 26
31 °FFog.2 mph93%30.27 "Hg4 mi
5:00 AM31 °FFog.2 mph93%30.27 "Hg4 mi
3:00 AM32 °FFog.2 mph94%30.26 "Hg2 mi
2:00 AM32 °FLow clouds.2 mph94%30.26 "Hg3 mi
1:00 AM31 °FLight snow. Low clouds.2 mph94%30.25 "Hg2 mi
12:00 AM31 °FFog.2 mph95%30.25 "Hg2 mi
11:00 PM
Jan 25
30 °FFog.2 mph94%30.25 "Hg2 mi
9:00 PM30 °FFog.2 mph92%30.24 "Hg3 mi
8:00 PM30 °FFog.1 mph91%30.23 "Hg3 mi
7:00 PM29 °FFog.2 mph91%30.22 "Hg3 mi
6:00 PM29 °FFog.2 mph91%30.22 "Hg3 mi
5:00 PM29 °FFog.3 mph90%30.20 "Hg3 mi
4:00 PM29 °FLow clouds.3 mph89%30.19 "Hg3 mi
3:00 PM29 °FLight snow. Low clouds.2 mph89%30.18 "Hg2 mi
2:00 PM28 °FLight snow. Low clouds.3 mph89%30.16 "Hg1 mi
1:00 PM28 °FSnow. Low clouds.3 mph89%30.16 "Hg2 mi
12:00 PM28 °FLight snow. Low clouds.5 mph89%30.16 "Hg1 mi
11:00 AM28 °FLight snow. Low clouds.3 mph89%30.17 "Hg1 mi
10:00 AM28 °FLight snow. Low clouds.3 mph90%30.16 "Hg1 mi
9:00 AM27 °FLight snow. Low clouds.3 mph91%30.15 "Hg1 mi
8:00 AM28 °FLight snow. Low clouds.3 mph91%30.13 "Hg2 mi
7:00 AM28 °FSnow. Low clouds.2 mph92%30.12 "Hg2 mi
Weather by CustomWeather, © 2014

See weather overviewHow to use our weather pages